Torna al catalogo

SL-12 R/B(2)

AttivoGEO
NORAD 28240·ROCKET BODY·🇷🇺 Russia

Lanciato Apr 26, 2004 da Baikonur Cosmodrome

Loading…

TLE

AggiornatoSource: Space-Track

Epoca: Sep 14, 2026, 05:50 UTC

1 28240U 04015D   26257.24335750 -.00000328  00000-0  00000-0 0  9991
2 28240  13.3966  13.6861 0016289 331.5015 220.5086  1.00713229 82306

Traccia SL-12 R/B(2) in tempo reale con AllMySat

Download on the App Store